DLH576L LFBO-LEPA

Flight info

Callsign DLH576L
Flight time 1h 7m
Altitude 21000
Route RIBOU DCT ROCAN DCT IBRAP N13 LORES
Aircraft AT46/M-SDFGIRY/S

Departure

Time 2026-05-04 16:09
Airport Toulouse-Blagnac Airport (LFBO)

Arrival

Time 2026-05-04 17:16
Airport Palma de Mallorca Airport (LEPA)
Time Latitude Longitude Altitude Speed Heading
2026-05-04 16:06 43.62020 1.37416 490 ft 9 kts 232°
2026-05-04 16:07 43.61967 1.37317 488 ft 9 kts 232°
2026-05-04 16:07 43.61957 1.37147 486 ft 0 kts 325°
2026-05-04 16:08 43.62242 1.36850 485 ft 95 kts 323°
2026-05-04 16:09 43.63703 1.35215 1799 ft 127 kts 321°
2026-05-04 16:09 43.65360 1.33458 2590 ft 161 kts 324°
2026-05-04 16:10 43.67406 1.31580 3606 ft 183 kts 326°
2026-05-04 16:11 43.67178 1.27429 5469 ft 193 kts 198°
2026-05-04 16:11 43.65842 1.27564 6082 ft 199 kts 155°
2026-05-04 16:12 43.62723 1.31345 7670 ft 203 kts 142°
2026-05-04 16:12 43.59839 1.34740 9164 ft 203 kts 142°
2026-05-04 16:13 43.57679 1.37306 10287 ft 201 kts 143°
2026-05-04 16:13 43.55595 1.39776 11351 ft 198 kts 143°
2026-05-04 16:14 43.53503 1.42249 12353 ft 199 kts 143°
2026-05-04 16:14 43.51389 1.44747 13406 ft 198 kts 143°
2026-05-04 16:15 43.48267 1.48442 14870 ft 191 kts 144°
2026-05-04 16:16 43.46289 1.50770 15996 ft 191 kts 145°
2026-05-04 16:16 43.43112 1.54463 17869 ft 203 kts 146°
2026-05-04 16:17 43.40930 1.57028 18897 ft 207 kts 145°
2026-05-04 16:18 43.37630 1.60934 20817 ft 213 kts 146°
2026-05-04 16:18 43.36459 1.62305 21026 ft 229 kts 147°
2026-05-04 16:19 43.32427 1.66941 21036 ft 269 kts 146°
2026-05-04 16:19 43.29542 1.70324 20934 ft 275 kts 145°
2026-05-04 16:20 43.25138 1.75409 20914 ft 276 kts 147°
2026-05-04 16:20 43.22059 1.78610 20908 ft 275 kts 149°
2026-05-04 16:21 43.17460 1.83293 20903 ft 275 kts 149°
2026-05-04 16:22 43.14382 1.86426 20936 ft 276 kts 149°
2026-05-04 16:22 43.09707 1.91180 20901 ft 281 kts 149°
2026-05-04 16:23 43.04435 1.93209 20905 ft 264 kts 184°
2026-05-04 16:24 42.97086 1.93336 20896 ft 262 kts 182°
2026-05-04 16:25 42.93442 1.93499 20907 ft 262 kts 182°
2026-05-04 16:26 42.86125 1.93818 20913 ft 265 kts 182°
2026-05-04 16:26 42.80541 1.94061 20916 ft 268 kts 182°
2026-05-04 16:27 42.76784 1.94224 20907 ft 272 kts 182°
2026-05-04 16:28 42.71122 1.94472 20911 ft 272 kts 182°
2026-05-04 16:28 42.66524 1.94748 20860 ft 268 kts 174°
2026-05-04 16:29 42.59430 1.97578 20922 ft 267 kts 170°
2026-05-04 16:30 42.54014 1.99513 20911 ft 269 kts 170°
2026-05-04 16:31 42.50389 2.00814 20910 ft 270 kts 170°
2026-05-04 16:31 42.44911 2.02779 20907 ft 271 kts 170°
2026-05-04 16:32 42.39441 2.04740 20922 ft 272 kts 170°
2026-05-04 16:33 42.35761 2.06076 20906 ft 274 kts 170°
2026-05-04 16:33 42.32054 2.07392 20909 ft 273 kts 170°
2026-05-04 16:34 42.28399 2.08705 20902 ft 270 kts 171°
2026-05-04 16:34 42.26601 2.09313 20926 ft 271 kts 171°
2026-05-04 16:35 42.21377 2.11167 20910 ft 270 kts 170°
2026-05-04 16:35 42.16510 2.12888 20914 ft 271 kts 171°
2026-05-04 16:36 42.14686 2.13532 20914 ft 270 kts 171°
2026-05-04 16:36 42.11055 2.14817 20921 ft 270 kts 171°
2026-05-04 16:37 42.07423 2.16095 20924 ft 269 kts 171°
2026-05-04 16:37 42.05610 2.16732 20923 ft 270 kts 171°
2026-05-04 16:37 42.01939 2.18025 20921 ft 268 kts 171°
2026-05-04 16:38 41.98421 2.19261 20864 ft 267 kts 171°
2026-05-04 16:39 41.93036 2.21149 20908 ft 267 kts 171°
2026-05-04 16:39 41.89376 2.22438 20916 ft 269 kts 171°
2026-05-04 16:40 41.85759 2.23706 20919 ft 273 kts 171°
2026-05-04 16:40 41.82017 2.25016 20930 ft 277 kts 171°
2026-05-04 16:41 41.78263 2.26332 20931 ft 279 kts 171°
2026-05-04 16:41 41.72545 2.28326 20933 ft 282 kts 171°
2026-05-04 16:42 41.66849 2.30314 20928 ft 282 kts 171°
2026-05-04 16:43 41.63021 2.31648 20934 ft 282 kts 171°
2026-05-04 16:43 41.59229 2.32965 20937 ft 282 kts 171°
2026-05-04 16:43 41.57319 2.33629 20941 ft 283 kts 171°
2026-05-04 16:44 41.49691 2.36276 20934 ft 282 kts 171°
2026-05-04 16:45 41.45887 2.37594 20929 ft 282 kts 171°
2026-05-04 16:46 41.40170 2.39572 20926 ft 283 kts 171°
2026-05-04 16:46 41.36336 2.40897 20924 ft 283 kts 171°
2026-05-04 16:47 41.32498 2.42220 20922 ft 284 kts 171°
2026-05-04 16:47 41.28672 2.43535 20923 ft 284 kts 171°
2026-05-04 16:48 41.22928 2.45510 20922 ft 285 kts 171°
2026-05-04 16:48 41.21014 2.46171 20920 ft 285 kts 171°
2026-05-04 16:49 41.17145 2.47497 20918 ft 285 kts 171°
2026-05-04 16:49 41.13300 2.48818 20912 ft 286 kts 171°
2026-05-04 16:50 41.09411 2.50144 20524 ft 298 kts 171°
2026-05-04 16:50 41.05284 2.51547 19784 ft 312 kts 170°
2026-05-04 16:51 41.01030 2.53011 19068 ft 319 kts 170°
2026-05-04 16:51 40.98894 2.53740 18721 ft 314 kts 170°
2026-05-04 16:51 40.94723 2.55165 17987 ft 305 kts 170°
2026-05-04 16:52 40.90644 2.56554 17192 ft 301 kts 170°
2026-05-04 16:52 40.88643 2.57343 16795 ft 301 kts 162°
2026-05-04 16:53 40.84875 2.59773 16027 ft 301 kts 159°
2026-05-04 16:53 40.79139 2.63085 14929 ft 300 kts 161°
2026-05-04 16:54 40.77226 2.64172 14565 ft 300 kts 161°
2026-05-04 16:55 40.69645 2.68476 13079 ft 292 kts 161°
2026-05-04 16:55 40.66526 2.70241 12429 ft 290 kts 161°
2026-05-04 16:56 40.62834 2.72328 11673 ft 287 kts 161°
2026-05-04 16:56 40.57400 2.75399 10555 ft 280 kts 161°
2026-05-04 16:57 40.55612 2.76408 10233 ft 278 kts 161°
2026-05-04 16:57 40.52148 2.78360 9989 ft 265 kts 162°
2026-05-04 16:58 40.46952 2.81275 9613 ft 269 kts 162°
2026-05-04 16:58 40.45244 2.82239 9433 ft 265 kts 161°
2026-05-04 16:59 40.41942 2.84096 9083 ft 261 kts 162°
2026-05-04 17:00 40.35182 2.87884 8387 ft 266 kts 161°
2026-05-04 17:00 40.30065 2.90751 7873 ft 267 kts 161°
2026-05-04 17:01 40.26635 2.92666 7537 ft 268 kts 161°
2026-05-04 17:01 40.23204 2.94581 7204 ft 269 kts 160°
2026-05-04 17:02 40.19734 2.96514 6991 ft 269 kts 161°
2026-05-04 17:02 40.16345 2.98403 6950 ft 262 kts 161°
2026-05-04 17:03 40.14675 2.99333 6945 ft 260 kts 161°
2026-05-04 17:03 40.13022 3.00253 6943 ft 259 kts 161°
2026-05-04 17:03 40.09708 3.02095 6938 ft 258 kts 161°
2026-05-04 17:04 40.06413 3.03925 6934 ft 257 kts 161°
2026-05-04 17:04 40.03129 3.05748 6938 ft 256 kts 161°
2026-05-04 17:05 39.99843 3.07566 6940 ft 256 kts 161°
2026-05-04 17:05 39.96561 3.09384 6940 ft 256 kts 161°
2026-05-04 17:06 39.93259 3.11201 6892 ft 253 kts 163°
2026-05-04 17:06 39.91561 3.11480 6805 ft 245 kts 186°
2026-05-04 17:07 39.88177 3.10952 6590 ft 244 kts 191°
2026-05-04 17:07 39.87065 3.10756 6519 ft 242 kts 191°
2026-05-04 17:07 39.85387 3.10508 6396 ft 239 kts 189°
2026-05-04 17:07 39.83759 3.10308 6277 ft 238 kts 188°
2026-05-04 17:08 39.82112 3.10106 6142 ft 239 kts 189°
2026-05-04 17:08 39.78799 3.09693 5902 ft 240 kts 188°
2026-05-04 17:08 39.77141 3.09491 5773 ft 239 kts 189°
2026-05-04 17:09 39.75482 3.09284 5650 ft 240 kts 189°
2026-05-04 17:09 39.73797 3.09077 5521 ft 240 kts 188°
2026-05-04 17:09 39.72148 3.08856 5400 ft 236 kts 191°
2026-05-04 17:10 39.69657 3.06432 4916 ft 231 kts 236°
2026-05-04 17:10 39.67310 3.00957 4179 ft 233 kts 239°
2026-05-04 17:11 39.66453 2.99168 3938 ft 231 kts 237°
2026-05-04 17:11 39.65623 2.97508 3690 ft 203 kts 237°
2026-05-04 17:11 39.64274 2.94749 3177 ft 166 kts 239°
2026-05-04 17:12 39.63695 2.93503 2930 ft 158 kts 238°
2026-05-04 17:12 39.62557 2.91046 2423 ft 157 kts 238°
2026-05-04 17:13 39.60818 2.87378 1925 ft 155 kts 237°
2026-05-04 17:14 39.59213 2.83939 1395 ft 144 kts 237°
2026-05-04 17:14 39.58683 2.82839 1226 ft 144 kts 236°
2026-05-04 17:14 39.57646 2.80630 841 ft 133 kts 237°
2026-05-04 17:15 39.57214 2.79690 681 ft 118 kts 237°
2026-05-04 17:15 39.56423 2.78073 355 ft 96 kts 235°
2026-05-04 17:16 39.55783 2.76699 153 ft 87 kts 238°
2026-05-04 17:16 39.55021 2.75055 26 ft 43 kts 239°
2026-05-04 17:17 39.54884 2.74768 28 ft 30 kts 239°
2026-05-04 17:17 39.54806 2.74369 31 ft 7 kts 271°
2026-05-04 17:18 39.54804 2.74313 32 ft 5 kts 270°
2026-05-04 17:18 39.54799 2.74191 33 ft 18 kts 259°
2026-05-04 17:19 39.54740 2.74030 33 ft 4 kts 237°
2026-05-04 17:19 39.54700 2.73945 33 ft 10 kts 238°
2026-05-04 17:20 39.54529 2.73578 32 ft 37 kts 238°
2026-05-04 17:20 39.54316 2.73127 33 ft 22 kts 238°
2026-05-04 17:20 39.54266 2.73025 33 ft 18 kts 238°
2026-05-04 17:21 39.54229 2.72836 33 ft 9 kts 317°
2026-05-04 17:21 39.54323 2.72762 33 ft 1 kts
2026-05-04 17:22 39.54327 2.72772 33 ft 1 kts 118°
2026-05-04 17:22 39.54314 2.72781 33 ft 0 kts 149°